Time,TemperatureF,DewpointF,PressureIn,WindDirection,WindDirectionDegrees,WindSpeedMPH,WindSpeedGustMPH,Humidity,HourlyPrecipIn,Conditions,Clouds,dailyrainin,SoftwareType,DateUTC
2013-01-01 00:09:00,13.1,8.0,30.19,NW,319,1.0,6.0,81,0.00,,,0.00,weatherlink.com 1.10,2013-01-01 06:09:00,
2013-01-01 00:24:00,12.6,8.0,30.18,NNE,17,1.0,7.0,82,0.00,,,0.00,weatherlink.com 1.10,2013-01-01 06:24:00,
2013-01-01 00:39:00,12.0,8.0,30.18,North,8,2.0,9.0,82,0.00,,,0.00,weatherlink.com 1.10,2013-01-01 06:39:00,
2013-01-01 00:54:00,11.4,8.0,30.18,NW,316,1.0,8.0,84,0.00,,,0.00,weatherlink.com 1.10,2013-01-01 06:54:00,
2013-01-01 01:09:00,10.6,7.0,30.18,East,94,0.0,3.0,85,0.00,,,0.00,weatherlink.com 1.10,2013-01-01 07:09:00,
2013-01-01 01:26:00,10.1,7.0,30.18,NNE,16,3.0,6.0,85,0.00,,,0.00,weatherlink.com 1.10,2013-01-01 07:26:00,
2013-01-01 01:39:00,9.5,6.0,30.19,NNW,342,0.0,3.0,85,0.00,,,0.00,weatherlink.com 1.10,2013-01-01 07:39:00,
2013-01-01 01:54:00,8.9,6.0,30.19,NW,321,3.0,8.0,86,0.00,,,0.00,weatherlink.com 1.10,2013-01-01 07:54:00,
2013-01-01 02:09:00,8.5,5.0,30.20,SSE,150,0.0,7.0,86,0.00,,,0.00,weatherlink.com 1.10,2013-01-01 08:09:00,
2013-01-01 02:24:00,8.0,5.0,30.20,NE,49,2.0,6.0,86,0.00,,,0.00,weatherlink.com 1.10,2013-01-01 08:24:00,
2013-01-01 02:39:00,7.5,4.0,30.20,ESE,104,1.0,1.0,86,0.00,,,0.00,weatherlink.com 1.10,2013-01-01 08:39:00,
2013-01-01 02:54:00,7.1,4.0,30.20,North,8,1.0,4.0,86,0.00,,,0.00,weatherlink.com 1.10,2013-01-01 08:54:00,
2013-01-01 03:09:00,6.5,4.0,30.21,ENE,58,0.0,3.0,87,0.00,,,0.00,weatherlink.com 1.10,2013-01-01 09:09:00,
2013-01-01 03:24:00,6.1,3.0,30.22,NW,314,3.0,3.0,87,0.00,,,0.00,weatherlink.com 1.10,2013-01-01 09:24:00,
2013-01-01 03:39:00,5.4,2.0,30.22,SW,221,1.0,1.0,87,0.00,,,0.00,weatherlink.com 1.10,2013-01-01 09:39:00,
2013-01-01 03:54:00,4.9,2.0,30.23,SW,225,0.0,1.0,89,0.00,,,0.00,weatherlink.com 1.10,2013-01-01 09:54:00,
2013-01-01 04:09:00,4.8,2.0,30.23,West,271,0.0,1.0,88,0.00,,,0.00,weatherlink.com 1.10,2013-01-01 10:09:00,
2013-01-01 04:35:00,4.3,2.0,30.23,West,281,1.0,2.0,90,0.00,,,0.00,weatherlink.com 1.10,2013-01-01 10:35:00,
2013-01-01 04:54:00,3.4,1.0,30.23,NW,317,0.0,2.0,89,0.00,,,0.00,weatherlink.com 1.10,2013-01-01 10:54:00,
2013-01-01 05:09:00,2.8,0.0,30.24,West,270,0.0,1.0,89,0.00,,,0.00,weatherlink.com 1.10,2013-01-01 11:09:00,
2013-01-01 05:25:00,2.7,1.0,30.24,West,269,0.0,1.0,90,0.00,,,0.00,weatherlink.com 1.10,2013-01-01 11:25:00,
2013-01-01 05:40:00,2.5,0.0,30.24,West,277,0.0,2.0,90,0.00,,,0.00,weatherlink.com 1.10,2013-01-01 11:40:00,
2013-01-01 05:55:00,2.1,0.0,30.25,NW,305,0.0,2.0,90,0.00,,,0.00,weatherlink.com 1.10,2013-01-01 11:55:00,
2013-01-01 06:10:00,1.4,-1.0,30.25,WSW,240,0.0,1.0,90,0.00,,,0.00,weatherlink.com 1.10,2013-01-01 12:10:00,
2013-01-01 06:25:00,1.6,0.0,30.26,West,264,0.0,2.0,91,0.00,,,0.00,weatherlink.com 1.10,2013-01-01 12:25:00,
2013-01-01 06:40:00,1.4,-1.0,30.27,NNW,333,1.0,3.0,90,0.00,,,0.00,weatherlink.com 1.10,2013-01-01 12:40:00,
2013-01-01 06:55:00,0.9,-1.0,30.26,North,352,0.0,1.0,90,0.00,,,0.00,weatherlink.com 1.10,2013-01-01 12:55:00,
2013-01-01 07:10:00,0.3,-2.0,30.27,North,352,0.0,0.0,91,0.00,,,0.00,weatherlink.com 1.10,2013-01-01 13:10:00,
2013-01-01 07:25:00,-0.3,-2.0,30.27,ENE,64,0.0,1.0,91,0.00,,,0.00,weatherlink.com 1.10,2013-01-01 13:25:00,
2013-01-01 07:40:00,-0.3,-2.0,30.27,WNW,300,0.0,1.0,91,0.00,,,0.00,weatherlink.com 1.10,2013-01-01 13:40:00,
2013-01-01 07:55:00,0.2,-2.0,30.27,NW,307,0.0,1.0,92,0.00,,,0.00,weatherlink.com 1.10,2013-01-01 13:55:00,
2013-01-01 08:10:00,1.3,-1.0,30.26,NW,308,0.0,0.0,91,0.00,,,0.00,weatherlink.com 1.10,2013-01-01 14:10:00,
2013-01-01 08:25:00,2.0,-1.0,30.27,North,360,1.0,2.0,89,0.00,,,0.00,weatherlink.com 1.10,2013-01-01 14:25:00,
2013-01-01 08:40:00,2.9,0.0,30.27,NE,47,2.0,5.0,88,0.00,,,0.00,weatherlink.com 1.10,2013-01-01 14:40:00,
2013-01-01 08:55:00,3.7,1.0,30.27,North,8,0.0,5.0,86,0.00,,,0.00,weatherlink.com 1.10,2013-01-01 14:55:00,
2013-01-01 09:11:00,4.4,1.0,30.26,NNE,13,2.0,3.0,85,0.00,,,0.00,weatherlink.com 1.10,2013-01-01 15:11:00,
2013-01-01 09:26:00,4.4,1.0,30.27,NNE,27,1.0,5.0,84,0.00,,,0.00,weatherlink.com 1.10,2013-01-01 15:26:00,
2013-01-01 09:44:00,5.1,1.0,30.27,North,356,1.0,4.0,83,0.00,,,0.00,weatherlink.com 1.10,2013-01-01 15:44:00,
2013-01-01 09:56:00,5.8,1.0,30.27,NW,316,4.0,4.0,82,0.00,,,0.00,weatherlink.com 1.10,2013-01-01 15:56:00,
2013-01-01 10:11:00,6.8,2.0,30.28,NNW,341,1.0,5.0,81,0.00,,,0.00,weatherlink.com 1.10,2013-01-01 16:11:00,
2013-01-01 10:26:00,8.3,3.0,30.28,NE,37,1.0,1.0,78,0.00,,,0.00,weatherlink.com 1.10,2013-01-01 16:26:00,
2013-01-01 10:41:00,9.1,3.0,30.29,NNW,338,3.0,3.0,77,0.00,,,0.00,weatherlink.com 1.10,2013-01-01 16:41:00,
2013-01-01 10:56:00,9.2,3.0,30.28,NNE,18,0.0,3.0,76,0.00,,,0.00,weatherlink.com 1.10,2013-01-01 16:56:00,
2013-01-01 11:11:00,9.9,4.0,30.28,ESE,112,0.0,6.0,76,0.00,,,0.00,weatherlink.com 1.10,2013-01-01 17:11:00,
2013-01-01 11:26:00,10.4,4.0,30.27,NNW,330,0.0,3.0,75,0.00,,,0.00,weatherlink.com 1.10,2013-01-01 17:26:00,
2013-01-01 11:41:00,11.2,4.0,30.27,WNW,287,0.0,3.0,74,0.00,,,0.00,weatherlink.com 1.10,2013-01-01 17:41:00,
2013-01-01 11:56:00,11.9,5.0,30.27,West,264,2.0,4.0,74,0.00,,,0.00,weatherlink.com 1.10,2013-01-01 17:56:00,
2013-01-01 12:11:00,11.9,5.0,30.26,NNW,331,1.0,5.0,73,0.00,,,0.00,weatherlink.com 1.10,2013-01-01 18:11:00,
2013-01-01 12:26:00,12.0,5.0,30.26,WSW,251,3.0,4.0,73,0.00,,,0.00,weatherlink.com 1.10,2013-01-01 18:26:00,
2013-01-01 12:42:00,12.1,5.0,30.26,WNW,285,3.0,6.0,73,0.00,,,0.00,weatherlink.com 1.10,2013-01-01 18:42:00,
2013-01-01 12:57:00,12.8,6.0,30.25,NW,323,3.0,5.0,73,0.00,,,0.00,weatherlink.com 1.10,2013-01-01 18:57:00,
2013-01-01 13:12:00,14.1,6.0,30.24,NW,309,1.0,4.0,71,0.00,,,0.00,weatherlink.com 1.10,2013-01-01 19:12:00,
2013-01-01 13:27:00,14.1,5.0,30.24,WNW,289,4.0,4.0,68,0.00,,,0.00,weatherlink.com 1.10,2013-01-01 19:27:00,
2013-01-01 13:42:00,14.0,5.0,30.23,WSW,256,2.0,6.0,68,0.00,,,0.00,weatherlink.com 1.10,2013-01-01 19:42:00,
2013-01-01 13:57:00,15.1,6.0,30.23,NE,49,1.0,4.0,68,0.00,,,0.00,weatherlink.com 1.10,2013-01-01 19:57:00,
2013-01-01 14:12:00,15.7,6.0,30.22,North,6,2.0,6.0,66,0.00,,,0.00,weatherlink.com 1.10,2013-01-01 20:12:00,
2013-01-01 14:27:00,16.0,6.0,30.23,NNW,345,1.0,6.0,66,0.00,,,0.00,weatherlink.com 1.10,2013-01-01 20:27:00,
2013-01-01 14:42:00,16.0,6.0,30.22,WNW,294,1.0,5.0,65,0.00,,,0.00,weatherlink.com 1.10,2013-01-01 20:42:00,
2013-01-01 14:57:00,16.5,7.0,30.22,NW,323,5.0,5.0,65,0.00,,,0.00,weatherlink.com 1.10,2013-01-01 20:57:00,
2013-01-01 15:12:00,16.9,7.0,30.23,West,277,3.0,4.0,65,0.00,,,0.00,weatherlink.com 1.10,2013-01-01 21:12:00,
2013-01-01 15:27:00,16.9,7.0,30.23,West,281,4.0,5.0,64,0.00,,,0.00,weatherlink.com 1.10,2013-01-01 21:27:00,
2013-01-01 15:44:00,16.8,7.0,30.22,West,268,0.0,5.0,64,0.00,,,0.00,weatherlink.com 1.10,2013-01-01 21:44:00,
2013-01-01 15:58:00,15.9,6.0,30.22,West,267,4.0,5.0,66,0.00,,,0.00,weatherlink.com 1.10,2013-01-01 21:58:00,
2013-01-01 16:13:00,15.0,7.0,30.22,WSW,238,1.0,4.0,69,0.00,,,0.00,weatherlink.com 1.10,2013-01-01 22:13:00,
2013-01-01 16:28:00,13.7,6.0,30.22,WSW,243,1.0,3.0,72,0.00,,,0.00,weatherlink.com 1.10,2013-01-01 22:28:00,
2013-01-01 16:43:00,12.5,6.0,30.22,SW,233,1.0,4.0,75,0.00,,,0.00,weatherlink.com 1.10,2013-01-01 22:43:00,
2013-01-01 16:58:00,11.5,5.0,30.22,SW,231,2.0,3.0,76,0.00,,,0.00,weatherlink.com 1.10,2013-01-01 22:58:00,
2013-01-01 17:13:00,10.7,5.0,30.22,WSW,240,1.0,3.0,77,0.00,,,0.00,weatherlink.com 1.10,2013-01-01 23:13:00,
2013-01-01 17:28:00,10.1,5.0,30.22,SW,234,1.0,3.0,78,0.00,,,0.00,weatherlink.com 1.10,2013-01-01 23:28:00,
2013-01-01 17:43:00,9.6,4.0,30.22,West,263,2.0,3.0,79,0.00,,,0.00,weatherlink.com 1.10,2013-01-01 23:43:00,
2013-01-01 17:58:00,9.1,4.0,30.22,WSW,252,1.0,3.0,79,0.00,,,0.00,weatherlink.com 1.10,2013-01-01 23:58:00,
2013-01-01 18:13:00,8.5,4.0,30.22,WSW,257,1.0,1.0,80,0.00,,,0.00,weatherlink.com 1.10,2013-01-02 00:13:00,
2013-01-01 18:28:00,8.4,3.0,30.22,WSW,258,1.0,2.0,80,0.00,,,0.00,weatherlink.com 1.10,2013-01-02 00:28:00,
2013-01-01 18:43:00,7.9,3.0,30.23,SW,224,1.0,2.0,81,0.00,,,0.00,weatherlink.com 1.10,2013-01-02 00:43:00,
2013-01-01 18:58:00,7.2,3.0,30.22,SW,225,0.0,1.0,82,0.00,,,0.00,weatherlink.com 1.10,2013-01-02 00:58:00,
2013-01-01 19:13:00,5.9,2.0,30.23,SW,225,0.0,0.0,83,0.00,,,0.00,weatherlink.com 1.10,2013-01-02 01:13:00,
2013-01-01 19:29:00,4.8,2.0,30.23,SW,224,0.0,1.0,87,0.00,,,0.00,weatherlink.com 1.10,2013-01-02 01:29:00,
2013-01-01 19:44:00,4.1,2.0,30.23,SW,224,0.0,0.0,89,0.00,,,0.00,weatherlink.com 1.10,2013-01-02 01:44:00,
2013-01-01 19:59:00,3.8,2.0,30.22,SW,224,0.0,0.0,90,0.00,,,0.00,weatherlink.com 1.10,2013-01-02 01:59:00,
2013-01-01 20:14:00,3.6,1.0,30.22,SW,224,0.0,1.0,90,0.00,,,0.00,weatherlink.com 1.10,2013-01-02 02:14:00,
2013-01-01 20:29:00,2.4,0.0,30.22,SW,224,0.0,0.0,90,0.00,,,0.00,weatherlink.com 1.10,2013-01-02 02:29:00,
2013-01-01 20:44:00,2.2,0.0,30.21,SW,224,0.0,0.0,92,0.00,,,0.00,weatherlink.com 1.10,2013-01-02 02:44:00,
2013-01-01 20:59:00,2.6,1.0,30.21,SW,224,0.0,0.0,91,0.00,,,0.00,weatherlink.com 1.10,2013-01-02 02:59:00,
2013-01-01 21:14:00,2.2,0.0,30.21,SW,224,0.0,0.0,92,0.00,,,0.00,weatherlink.com 1.10,2013-01-02 03:14:00,
2013-01-01 21:29:00,1.7,0.0,30.21,SW,224,0.0,0.0,92,0.00,,,0.00,weatherlink.com 1.10,2013-01-02 03:29:00,
2013-01-01 21:44:00,1.7,0.0,30.21,SW,224,0.0,0.0,92,0.00,,,0.00,weatherlink.com 1.10,2013-01-02 03:44:00,
2013-01-01 21:59:00,1.9,0.0,30.22,SW,224,0.0,0.0,92,0.00,,,0.00,weatherlink.com 1.10,2013-01-02 03:59:00,
2013-01-01 22:14:00,2.6,1.0,30.21,SW,224,0.0,0.0,92,0.00,,,0.00,weatherlink.com 1.10,2013-01-02 04:14:00,
2013-01-01 22:29:00,3.8,2.0,30.20,North,357,1.0,2.0,91,0.00,,,0.00,weatherlink.com 1.10,2013-01-02 04:29:00,
2013-01-01 22:45:00,5.0,3.0,30.21,North,355,0.0,0.0,90,0.00,,,0.00,weatherlink.com 1.10,2013-01-02 04:45:00,
2013-01-01 23:15:00,6.4,4.0,30.21,WNW,297,0.0,0.0,90,0.00,,,0.00,weatherlink.com 1.10,2013-01-02 05:15:00,
2013-01-01 23:30:00,7.4,5.0,30.20,SW,231,1.0,2.0,88,0.00,,,0.00,weatherlink.com 1.10,2013-01-02 05:30:00,
2013-01-01 23:45:00,8.3,5.0,30.19,WSW,238,0.0,1.0,86,0.00,,,0.00,weatherlink.com 1.10,2013-01-02 05:45:00,